{"data":{"norad_id":67498,"epoch":"2026-05-24T15:00:10.909728Z","epoch_age_seconds":110872,"freshness":"FRESH","line1":"1 67498U 26012F   26144.62512627  .00012143  00000+0  44988-3 0  9999","line2":"2 67498  42.9989 245.7060 0001282 264.4234  95.6472 15.27592568 19372","mean_motion":15.27592568,"eccentricity":0.0001282,"inclination_deg":42.9989,"raan_deg":245.706,"arg_perigee_deg":264.4234,"mean_anomaly_deg":95.6472,"bstar":0.00044988,"rev_number":1937,"period_min":94.265973150506,"perigee_km":482.13186395137,"apogee_km":483.89106241734,"semimajor_km":6861.1484631844,"source":"CELESTRAK","updated_at":"2026-05-25T13:38:21.567240Z"}}